User: anonymous   Login
Location: Unspecified
(0.0000°N, 0.0000°E)
Time: 02:48:29
(UTC+00:00)
Language:

SAUDISAT 3 - Orbit

View from above orbital plane
View from above orbital plane
View from above satellite
View from above satellite

Ground track
Ground track

The orbit data is extracted from the following two-line orbital elements,

1 31118U 07012B   17147.50387801 +.00000032 +00000-0 +13182-4 0  9990
2 31118 097.7301 142.0872 0014963 340.9555 019.1089 14.69055409541978
Epoch (UTC): 27 May 2017 12:05:35
Eccentricity: 0.0014963
inclination: 97.7301°
perigee height: 653 km
apogee height: 674 km
right ascension of ascending node: 142.0872°
argument of perigee: 340.9555°
revolutions per day: 14.69055409
mean anomaly at epoch: 19.1089°
orbit number at epoch: 54197

The dashed part of the orbit path shows where the satellite is in the earth's shadow,  

DLR